Weather History for KAUS - April, 2014

Change the Weather History Date:

Monday, April 7, 2014

  Actual Average Record
Temperature  
Mean Temperature 60 °F 65 °F  
Max Temperature 72 °F 78 °F 95 °F (2006)
Min Temperature 48 °F 52 °F 28 °F (2009)
Degree Days  
Heating Degree Days 5 3  
Month to date heating degree days 22 24  
Since 1 July heating degree days 2119 1861  
Cooling Degree Days 0 3  
Month to date cooling degree days 35 21  
Year to date cooling degree days 84 79  
Growing Degree Days 12 (Base 50)    
Moisture  
Dew Point 49 °F    
Average Humidity 68    
Maximum Humidity 89    
Minimum Humidity 47    
Precipitation  
Precipitation 0.43 in 0.07 in 0.69 in (2007)
Month to date precipitation 0.44 0.47  
Year to date precipitation 2.72 7.76  
Snow  
Snow 0.00 in - - ()
Month to date snowfall 0.0  
Since 1 July snowfall T  
Snow Depth 0.00 in    
Sea Level Pressure  
Sea Level Pressure 29.91 in    
Wind  
Wind Speed 6 mph (NNE)    
Max Wind Speed 32 mph    
Max Gust Speed 48 mph    
Visibility 9 miles    
Events Rain , Thunderstorm    
T = Trace of Precipitation, MM = Missing Value Source: NWS Daily Summary

Daily Weather History Graph

Daily Weather History Graph

Search for Another Location

Airport or City:

Trip Planner

Search our weather history database for the weather conditions in past years. The results will help you decide how hot, cold, wet, or windy it might be!

Date:

Astronomy

Apr. 07, 2014 Rise Set
Actual Time 7:12 AM CDT 7:53 PM CDT
Civil Twilight 6:48 AM CDT 8:17 PM CDT
Nautical Twilight 6:19 AM CDT 8:46 PM CDT
Astronomical Twilight 5:50 AM CDT 9:15 PM CDT
Moon 1:20 PM CDT (4/7) 2:19 AM CDT (4/7)
Length of Visible Light 13h 29m
Length of Day
12h 40m
First Quarter, 53% of the Moon is Illuminated
Apr 7
First Quarter
Apr 15
Full
Apr 22
Last Quarter
Apr 29
New
May 6
First Quarter

Hourly Weather History & Observations

Time (CDT) Temp. Dew Point Humidity Pressure Visibility Wind Dir Wind Speed Gust Speed Precip Events Conditions
12:53 AM 54.0 °F 48.0 °F 80% 29.82 in 10.0 mi North 8.1 mph - N/A   Overcast
1:53 AM 53.1 °F 48.0 °F 83% 29.83 in 10.0 mi North 10.4 mph - N/A   Overcast
2:53 AM 53.1 °F 48.0 °F 83% 29.84 in 10.0 mi Calm Calm - N/A   Overcast
3:53 AM 53.1 °F 48.9 °F 86% 29.82 in 10.0 mi NNW 4.6 mph - N/A   Overcast
4:53 AM 53.1 °F 48.0 °F 83% 29.83 in 10.0 mi NE 6.9 mph - N/A   Overcast
5:53 AM 53.1 °F 48.0 °F 83% 29.83 in 10.0 mi ENE 8.1 mph - N/A   Overcast
6:53 AM 53.1 °F 48.0 °F 83% 29.86 in 10.0 mi NE 6.9 mph - N/A   Overcast
7:53 AM 53.1 °F 48.0 °F 83% 29.89 in 10.0 mi NE 5.8 mph - N/A   Overcast
8:53 AM 53.1 °F 48.0 °F 83% 29.94 in 10.0 mi NE 4.6 mph - N/A   Overcast
9:53 AM 54.0 °F 48.0 °F 80% 29.95 in 10.0 mi East 4.6 mph - N/A   Overcast
10:24 AM 55.9 °F 48.9 °F 77% 29.94 in 10.0 mi Calm Calm - N/A   Overcast
10:53 AM 57.9 °F 48.9 °F 72% 29.93 in 10.0 mi NE 3.5 mph - N/A   Overcast
11:41 AM 61.0 °F 48.9 °F 64% 29.94 in 10.0 mi Variable 6.9 mph - N/A   Scattered Clouds
11:53 AM 62.1 °F 50.0 °F 65% 29.94 in 10.0 mi Variable 3.5 mph - N/A   Scattered Clouds
12:53 PM 66.0 °F 51.1 °F 59% 29.92 in 10.0 mi North 6.9 mph - N/A   Partly Cloudy
1:53 PM 68.0 °F 50.0 °F 52% 29.90 in 10.0 mi NNE 8.1 mph - N/A   Scattered Clouds
2:53 PM 71.6 °F 50.0 °F 46% 29.87 in 10.0 mi North 10.4 mph - N/A   Scattered Clouds
3:53 PM 69.1 °F 48.9 °F 49% 29.86 in 10.0 mi North 4.6 mph - N/A   Scattered Clouds
4:53 PM 68.0 °F 50.0 °F 52% 29.86 in 10.0 mi East 5.8 mph - N/A   Mostly Cloudy
5:53 PM 70.0 °F 50.0 °F 49% 29.85 in 10.0 mi Variable 5.8 mph - N/A   Mostly Cloudy
6:53 PM 68.0 °F 51.1 °F 55% 29.87 in 10.0 mi NE 8.1 mph - N/A Thunderstorm Thunderstorm
7:38 PM 54.0 °F 50.0 °F 86% 30.02 in 1.0 mi NW 24.2 mph 48.3 mph 0.11 in Rain , Thunderstorm Heavy Thunderstorms and Rain
7:53 PM 51.1 °F 48.0 °F 89% 30.04 in 2.5 mi WNW 9.2 mph 23.0 mph 0.30 in Rain , Thunderstorm Heavy Thunderstorms and Rain
8:04 PM 52.0 °F 48.9 °F 89% 30.04 in 4.0 mi WSW 8.1 mph - 0.02 in Rain , Thunderstorm Thunderstorms and Rain
8:53 PM 55.0 °F 51.1 °F 86% 29.95 in 10.0 mi NNE 12.7 mph - 0.13 in Rain Light Rain
9:53 PM 53.1 °F 51.1 °F 93% 30.00 in 10.0 mi West 4.6 mph - 0.00 in   Mostly Cloudy
10:53 PM 53.1 °F 50.0 °F 89% 30.04 in 10.0 mi WNW 5.8 mph - N/A   Partly Cloudy
11:53 PM 52.0 °F 48.9 °F 89% 30.03 in 10.0 mi Calm Calm - N/A   Clear